<?xml version="1.0" encoding="UTF-8" standalone="no" ?>
<gpx xmlns="http://www.topografix.com/GPX/1/1" xmlns:xsi="http://www.w3.org/2001/XMLSchema-instance" xsi:schemaLocation="http://www.topografix.com/GPX/1/1 http://www.topografix.com/GPX/1/1/gpx.xsd" version="1.1" creator="VisuGPX - https://www.visugpx.com">
  <metadata>
    <name>arfeuilles epales 31 kms</name>
    <desc><![CDATA[boucle au depart d arfeuilles ,belles grimpettes et passage a la cascade de la pisserette]]></desc>
  </metadata>
  <trk>
    <name><![CDATA[track]]></name>
    <trkseg>
      <trkpt lat="46.15799" lon="3.72928">
        <ele>418</ele>
        <time>2010-08-18T09:15:01Z</time>
      </trkpt>
      <trkpt lat="46.15751" lon="3.73028">
        <ele>421</ele>
        <time>2012-01-27T13:04:24Z</time>
      </trkpt>
      <trkpt lat="46.1573" lon="3.72978">
        <ele>421</ele>
        <time>2012-01-27T13:04:24Z</time>
      </trkpt>
      <trkpt lat="46.15632" lon="3.72809">
        <ele>421</ele>
        <time>2012-01-27T13:04:24Z</time>
      </trkpt>
      <trkpt lat="46.15634" lon="3.72492">
        <ele>441</ele>
        <time>2012-01-27T13:04:24Z</time>
      </trkpt>
      <trkpt lat="46.15565" lon="3.72382">
        <ele>456</ele>
        <time>2012-01-27T13:04:24Z</time>
      </trkpt>
      <trkpt lat="46.15586" lon="3.72222">
        <ele>476</ele>
        <time>2012-01-27T13:04:24Z</time>
      </trkpt>
      <trkpt lat="46.1557" lon="3.72175">
        <ele>481</ele>
        <time>2012-01-27T13:04:24Z</time>
      </trkpt>
      <trkpt lat="46.15513" lon="3.72063">
        <ele>498</ele>
        <time>2012-01-27T13:04:24Z</time>
      </trkpt>
      <trkpt lat="46.15465" lon="3.71907">
        <ele>512</ele>
        <time>2012-01-27T13:04:24Z</time>
      </trkpt>
      <trkpt lat="46.15311" lon="3.72039">
        <ele>519</ele>
        <time>2012-01-27T13:04:24Z</time>
      </trkpt>
      <trkpt lat="46.15126" lon="3.72044">
        <ele>509</ele>
        <time>2012-01-27T13:04:24Z</time>
      </trkpt>
      <trkpt lat="46.14946" lon="3.7203">
        <ele>510</ele>
        <time>2012-01-27T13:04:24Z</time>
      </trkpt>
      <trkpt lat="46.14788" lon="3.71912">
        <ele>530</ele>
        <time>2012-01-27T13:04:24Z</time>
      </trkpt>
      <trkpt lat="46.14584" lon="3.71723">
        <ele>559</ele>
        <time>2010-08-18T09:15:01Z</time>
      </trkpt>
      <trkpt lat="46.14407" lon="3.71783">
        <ele>571</ele>
        <time>2010-08-18T09:15:01Z</time>
      </trkpt>
      <trkpt lat="46.14356" lon="3.71937">
        <ele>561</ele>
        <time>2010-08-18T09:15:01Z</time>
      </trkpt>
      <trkpt lat="46.14304" lon="3.71971">
        <ele>561</ele>
        <time>2010-08-18T09:15:01Z</time>
      </trkpt>
      <trkpt lat="46.14294" lon="3.72065">
        <ele>556</ele>
        <time>2010-08-18T09:15:01Z</time>
      </trkpt>
      <trkpt lat="46.14211" lon="3.72173">
        <ele>539</ele>
        <time>2010-08-18T09:15:01Z</time>
      </trkpt>
      <trkpt lat="46.14058" lon="3.72208">
        <ele>534</ele>
        <time>2010-08-18T09:15:01Z</time>
      </trkpt>
      <trkpt lat="46.14007" lon="3.72307">
        <ele>528</ele>
        <time>2010-08-18T09:15:01Z</time>
      </trkpt>
      <trkpt lat="46.13845" lon="3.72351">
        <ele>535</ele>
        <time>2010-08-18T09:15:01Z</time>
      </trkpt>
      <trkpt lat="46.1376" lon="3.72456">
        <ele>542</ele>
        <time>2010-08-18T09:15:01Z</time>
      </trkpt>
      <trkpt lat="46.13712" lon="3.72542">
        <ele>536</ele>
        <time>2010-08-18T09:15:01Z</time>
      </trkpt>
      <trkpt lat="46.1366" lon="3.72576">
        <ele>530</ele>
        <time>2010-08-18T09:15:01Z</time>
      </trkpt>
      <trkpt lat="46.13581" lon="3.72565">
        <ele>542</ele>
        <time>2010-08-18T09:15:01Z</time>
      </trkpt>
      <trkpt lat="46.13543" lon="3.72596">
        <ele>549</ele>
        <time>2010-08-18T09:15:01Z</time>
      </trkpt>
      <trkpt lat="46.13541" lon="3.72551">
        <ele>550</ele>
        <time>2010-08-18T09:15:01Z</time>
      </trkpt>
      <trkpt lat="46.13445" lon="3.72467">
        <ele>563</ele>
        <time>2010-08-18T09:15:01Z</time>
      </trkpt>
      <trkpt lat="46.13371" lon="3.72494">
        <ele>568</ele>
        <time>2010-08-18T09:15:01Z</time>
      </trkpt>
      <trkpt lat="46.13291" lon="3.7257">
        <ele>571</ele>
        <time>2010-08-18T09:15:01Z</time>
      </trkpt>
      <trkpt lat="46.13226" lon="3.72568">
        <ele>561</ele>
        <time>2010-08-18T09:15:01Z</time>
      </trkpt>
      <trkpt lat="46.13166" lon="3.72661">
        <ele>551</ele>
        <time>2010-08-18T09:15:01Z</time>
      </trkpt>
      <trkpt lat="46.13123" lon="3.72698">
        <ele>549</ele>
        <time>2010-08-18T09:15:01Z</time>
      </trkpt>
      <trkpt lat="46.13091" lon="3.72753">
        <ele>548</ele>
        <time>2010-08-18T09:15:01Z</time>
      </trkpt>
      <trkpt lat="46.12991" lon="3.72815">
        <ele>557</ele>
        <time>2010-08-18T09:15:01Z</time>
      </trkpt>
      <trkpt lat="46.12994" lon="3.72938">
        <ele>555</ele>
        <time>2010-08-18T09:15:01Z</time>
      </trkpt>
      <trkpt lat="46.12942" lon="3.72959">
        <ele>562</ele>
        <time>2010-08-18T09:15:01Z</time>
      </trkpt>
      <trkpt lat="46.12853" lon="3.72912">
        <ele>582</ele>
        <time>2010-08-18T09:15:01Z</time>
      </trkpt>
      <trkpt lat="46.12839" lon="3.72717">
        <ele>596</ele>
        <time>2010-08-18T09:15:01Z</time>
      </trkpt>
      <trkpt lat="46.12919" lon="3.72612">
        <ele>597</ele>
        <time>2010-08-18T09:15:01Z</time>
      </trkpt>
      <trkpt lat="46.12931" lon="3.72545">
        <ele>611</ele>
        <time>2010-08-18T09:15:01Z</time>
      </trkpt>
      <trkpt lat="46.13" lon="3.72433">
        <ele>612</ele>
        <time>2010-08-18T09:15:01Z</time>
      </trkpt>
      <trkpt lat="46.13042" lon="3.72321">
        <ele>620</ele>
        <time>2010-08-18T09:15:01Z</time>
      </trkpt>
      <trkpt lat="46.13103" lon="3.72294">
        <ele>616</ele>
        <time>2010-08-18T09:15:01Z</time>
      </trkpt>
      <trkpt lat="46.13165" lon="3.72182">
        <ele>621</ele>
        <time>2010-08-18T09:15:01Z</time>
      </trkpt>
      <trkpt lat="46.13196" lon="3.72037">
        <ele>635</ele>
        <time>2010-08-18T09:15:01Z</time>
      </trkpt>
      <trkpt lat="46.13071" lon="3.72183">
        <ele>643</ele>
        <time>2010-08-18T09:15:01Z</time>
      </trkpt>
      <trkpt lat="46.1276" lon="3.72366">
        <ele>691</ele>
        <time>2010-08-18T09:15:01Z</time>
      </trkpt>
      <trkpt lat="46.12607" lon="3.72543">
        <ele>701</ele>
        <time>2010-08-18T09:15:01Z</time>
      </trkpt>
      <trkpt lat="46.12479" lon="3.72585">
        <ele>704</ele>
        <time>2010-08-18T09:15:01Z</time>
      </trkpt>
      <trkpt lat="46.12444" lon="3.72636">
        <ele>702</ele>
        <time>2010-08-18T09:15:01Z</time>
      </trkpt>
      <trkpt lat="46.12395" lon="3.72654">
        <ele>702</ele>
        <time>2010-08-18T09:15:01Z</time>
      </trkpt>
      <trkpt lat="46.12315" lon="3.72743">
        <ele>693</ele>
        <time>2010-08-18T09:15:01Z</time>
      </trkpt>
      <trkpt lat="46.12254" lon="3.7277">
        <ele>690</ele>
        <time>2010-08-18T09:15:01Z</time>
      </trkpt>
      <trkpt lat="46.12244" lon="3.72841">
        <ele>683</ele>
        <time>2010-08-18T09:15:01Z</time>
      </trkpt>
      <trkpt lat="46.12146" lon="3.72913">
        <ele>683</ele>
        <time>2010-08-18T09:15:01Z</time>
      </trkpt>
      <trkpt lat="46.12096" lon="3.72996">
        <ele>687</ele>
        <time>2010-08-18T09:15:01Z</time>
      </trkpt>
      <trkpt lat="46.11965" lon="3.73018">
        <ele>684</ele>
        <time>2010-08-18T09:15:01Z</time>
      </trkpt>
      <trkpt lat="46.11906" lon="3.73014">
        <ele>683</ele>
        <time>2010-08-18T09:15:01Z</time>
      </trkpt>
      <trkpt lat="46.11861" lon="3.73068">
        <ele>682</ele>
        <time>2010-08-18T09:15:01Z</time>
      </trkpt>
      <trkpt lat="46.11814" lon="3.73196">
        <ele>681</ele>
        <time>2010-08-18T09:15:01Z</time>
      </trkpt>
      <trkpt lat="46.1162" lon="3.73294">
        <ele>667</ele>
        <time>2010-08-18T09:15:01Z</time>
      </trkpt>
      <trkpt lat="46.11579" lon="3.73322">
        <ele>664</ele>
        <time>2010-08-18T09:15:01Z</time>
      </trkpt>
      <trkpt lat="46.11522" lon="3.73353">
        <ele>658</ele>
        <time>2010-08-18T09:15:01Z</time>
      </trkpt>
      <trkpt lat="46.11446" lon="3.73465">
        <ele>641</ele>
        <time>2010-08-18T09:15:01Z</time>
      </trkpt>
      <trkpt lat="46.11395" lon="3.73463">
        <ele>639</ele>
        <time>2010-08-18T09:15:01Z</time>
      </trkpt>
      <trkpt lat="46.1139" lon="3.73512">
        <ele>634</ele>
        <time>2010-08-18T09:15:01Z</time>
      </trkpt>
      <trkpt lat="46.11341" lon="3.73481">
        <ele>636</ele>
        <time>2010-08-18T09:15:01Z</time>
      </trkpt>
      <trkpt lat="46.11257" lon="3.73511">
        <ele>639</ele>
        <time>2010-08-18T09:15:01Z</time>
      </trkpt>
      <trkpt lat="46.11179" lon="3.73597">
        <ele>639</ele>
        <time>2010-08-18T09:15:01Z</time>
      </trkpt>
      <trkpt lat="46.11134" lon="3.73625">
        <ele>639</ele>
        <time>2010-08-18T09:15:01Z</time>
      </trkpt>
      <trkpt lat="46.11053" lon="3.73652">
        <ele>640</ele>
        <time>2010-08-18T09:15:01Z</time>
      </trkpt>
      <trkpt lat="46.11029" lon="3.73716">
        <ele>644</ele>
        <time>2010-08-18T09:15:01Z</time>
      </trkpt>
      <trkpt lat="46.11012" lon="3.73816">
        <ele>646</ele>
        <time>2010-08-18T09:15:01Z</time>
      </trkpt>
      <trkpt lat="46.1099" lon="3.73834">
        <ele>647</ele>
        <time>2010-08-18T09:15:01Z</time>
      </trkpt>
      <trkpt lat="46.10966" lon="3.73759">
        <ele>653</ele>
        <time>2010-08-18T09:15:01Z</time>
      </trkpt>
      <trkpt lat="46.10899" lon="3.73719">
        <ele>660</ele>
        <time>2010-08-18T09:15:01Z</time>
      </trkpt>
      <trkpt lat="46.108" lon="3.7372">
        <ele>668</ele>
        <time>2010-08-18T09:15:01Z</time>
      </trkpt>
      <trkpt lat="46.10707" lon="3.7363">
        <ele>678</ele>
        <time>2010-08-18T09:15:01Z</time>
      </trkpt>
      <trkpt lat="46.10306" lon="3.73642">
        <ele>709</ele>
        <time>2010-08-18T09:15:01Z</time>
      </trkpt>
      <trkpt lat="46.10115" lon="3.73806">
        <ele>736</ele>
        <time>2010-08-18T09:15:01Z</time>
      </trkpt>
      <trkpt lat="46.09869" lon="3.73893">
        <ele>780</ele>
        <time>2010-08-18T09:15:01Z</time>
      </trkpt>
      <trkpt lat="46.09784" lon="3.74027">
        <ele>801</ele>
        <time>2010-08-18T09:15:01Z</time>
      </trkpt>
      <trkpt lat="46.09758" lon="3.74133">
        <ele>809</ele>
        <time>2010-08-18T09:15:01Z</time>
      </trkpt>
      <trkpt lat="46.0962" lon="3.74142">
        <ele>823</ele>
        <time>2010-08-18T09:15:01Z</time>
      </trkpt>
      <trkpt lat="46.09577" lon="3.74183">
        <ele>822</ele>
        <time>2010-08-18T09:15:01Z</time>
      </trkpt>
      <trkpt lat="46.09471" lon="3.74206">
        <ele>825</ele>
        <time>2010-08-18T09:15:01Z</time>
      </trkpt>
      <trkpt lat="46.09353" lon="3.74287">
        <ele>832</ele>
        <time>2010-08-18T09:15:01Z</time>
      </trkpt>
      <trkpt lat="46.09267" lon="3.74301">
        <ele>849</ele>
        <time>2010-08-18T09:15:01Z</time>
      </trkpt>
      <trkpt lat="46.09128" lon="3.74624">
        <ele>860</ele>
        <time>2010-08-18T09:15:01Z</time>
      </trkpt>
      <trkpt lat="46.09117" lon="3.74808">
        <ele>856</ele>
        <time>2010-08-18T09:15:01Z</time>
      </trkpt>
      <trkpt lat="46.09071" lon="3.74927">
        <ele>860</ele>
        <time>2010-08-18T09:15:01Z</time>
      </trkpt>
      <trkpt lat="46.08999" lon="3.75044">
        <ele>872</ele>
        <time>2010-08-18T09:15:01Z</time>
      </trkpt>
      <trkpt lat="46.08952" lon="3.75211">
        <ele>879</ele>
        <time>2010-08-18T09:15:01Z</time>
      </trkpt>
      <trkpt lat="46.08997" lon="3.75452">
        <ele>869</ele>
        <time>2010-08-18T09:15:01Z</time>
      </trkpt>
      <trkpt lat="46.0885" lon="3.75648">
        <ele>882</ele>
        <time>2010-08-18T09:15:01Z</time>
      </trkpt>
      <trkpt lat="46.08739" lon="3.75736">
        <ele>882</ele>
        <time>2010-08-18T09:15:01Z</time>
      </trkpt>
      <trkpt lat="46.08669" lon="3.7577">
        <ele>878</ele>
        <time>2010-08-18T09:15:01Z</time>
      </trkpt>
      <trkpt lat="46.08634" lon="3.75856">
        <ele>875</ele>
        <time>2010-08-18T09:15:01Z</time>
      </trkpt>
      <trkpt lat="46.08632" lon="3.76027">
        <ele>879</ele>
        <time>2010-08-18T09:15:01Z</time>
      </trkpt>
      <trkpt lat="46.08597" lon="3.76143">
        <ele>884</ele>
        <time>2010-08-18T09:15:01Z</time>
      </trkpt>
      <trkpt lat="46.08535" lon="3.7618">
        <ele>878</ele>
        <time>2010-08-18T09:15:01Z</time>
      </trkpt>
      <trkpt lat="46.08481" lon="3.7635">
        <ele>875</ele>
        <time>2010-08-18T09:15:01Z</time>
      </trkpt>
      <trkpt lat="46.08359" lon="3.76415">
        <ele>861</ele>
        <time>2010-08-18T09:15:01Z</time>
      </trkpt>
      <trkpt lat="46.08377" lon="3.76593">
        <ele>867</ele>
        <time>2010-08-18T09:15:01Z</time>
      </trkpt>
      <trkpt lat="46.08315" lon="3.76734">
        <ele>870</ele>
        <time>2010-08-18T09:15:01Z</time>
      </trkpt>
      <trkpt lat="46.0819" lon="3.76824">
        <ele>865</ele>
        <time>2010-08-18T09:15:01Z</time>
      </trkpt>
      <trkpt lat="46.08162" lon="3.76865">
        <ele>864</ele>
        <time>2010-08-18T09:15:01Z</time>
      </trkpt>
      <trkpt lat="46.08127" lon="3.77013">
        <ele>862</ele>
        <time>2010-08-18T09:15:01Z</time>
      </trkpt>
      <trkpt lat="46.08175" lon="3.77112">
        <ele>849</ele>
        <time>2010-08-18T09:15:01Z</time>
      </trkpt>
      <trkpt lat="46.08266" lon="3.7703">
        <ele>841</ele>
        <time>2010-08-18T09:15:01Z</time>
      </trkpt>
      <trkpt lat="46.08352" lon="3.77006">
        <ele>839</ele>
        <time>2010-08-18T09:15:01Z</time>
      </trkpt>
      <trkpt lat="46.08428" lon="3.77044">
        <ele>839</ele>
        <time>2010-08-18T09:15:01Z</time>
      </trkpt>
      <trkpt lat="46.08523" lon="3.77153">
        <ele>834</ele>
        <time>2010-08-18T09:15:01Z</time>
      </trkpt>
      <trkpt lat="46.08576" lon="3.77225">
        <ele>824</ele>
        <time>2010-08-18T09:15:01Z</time>
      </trkpt>
      <trkpt lat="46.08657" lon="3.7725">
        <ele>822</ele>
        <time>2010-08-18T09:15:01Z</time>
      </trkpt>
      <trkpt lat="46.08786" lon="3.77376">
        <ele>798</ele>
        <time>2010-08-18T09:15:01Z</time>
      </trkpt>
      <trkpt lat="46.08849" lon="3.77381">
        <ele>788</ele>
        <time>2010-08-18T09:15:01Z</time>
      </trkpt>
      <trkpt lat="46.08979" lon="3.77239">
        <ele>753</ele>
        <time>2010-08-18T09:15:01Z</time>
      </trkpt>
      <trkpt lat="46.0898" lon="3.77165">
        <ele>750</ele>
        <time>2010-08-18T09:15:01Z</time>
      </trkpt>
      <trkpt lat="46.09027" lon="3.77124">
        <ele>749</ele>
        <time>2010-08-18T09:15:01Z</time>
      </trkpt>
      <trkpt lat="46.09089" lon="3.77194">
        <ele>745</ele>
        <time>2010-08-18T09:15:01Z</time>
      </trkpt>
      <trkpt lat="46.092" lon="3.77167">
        <ele>741</ele>
        <time>2010-08-18T09:15:01Z</time>
      </trkpt>
      <trkpt lat="46.09304" lon="3.77112">
        <ele>737</ele>
        <time>2010-08-18T09:15:01Z</time>
      </trkpt>
      <trkpt lat="46.09427" lon="3.76996">
        <ele>733</ele>
        <time>2010-08-18T09:15:01Z</time>
      </trkpt>
      <trkpt lat="46.09464" lon="3.76929">
        <ele>735</ele>
        <time>2010-08-18T09:15:01Z</time>
      </trkpt>
      <trkpt lat="46.09582" lon="3.7688">
        <ele>738</ele>
        <time>2010-08-18T09:15:01Z</time>
      </trkpt>
      <trkpt lat="46.09643" lon="3.76807">
        <ele>741</ele>
        <time>2010-08-18T09:15:01Z</time>
      </trkpt>
      <trkpt lat="46.09638" lon="3.77046">
        <ele>718</ele>
        <time>2010-08-18T09:15:01Z</time>
      </trkpt>
      <trkpt lat="46.09729" lon="3.77139">
        <ele>707</ele>
        <time>2010-08-18T09:15:01Z</time>
      </trkpt>
      <trkpt lat="46.09861" lon="3.77201">
        <ele>700</ele>
        <time>2010-08-18T09:15:01Z</time>
      </trkpt>
      <trkpt lat="46.09837" lon="3.77346">
        <ele>707</ele>
        <time>2010-08-18T09:15:01Z</time>
      </trkpt>
      <trkpt lat="46.09944" lon="3.77355">
        <ele>710</ele>
        <time>2010-08-18T09:15:01Z</time>
      </trkpt>
      <trkpt lat="46.10028" lon="3.77319">
        <ele>700</ele>
        <time>2010-08-18T09:15:01Z</time>
      </trkpt>
      <trkpt lat="46.10082" lon="3.77349">
        <ele>705</ele>
        <time>2010-08-18T09:15:01Z</time>
      </trkpt>
      <trkpt lat="46.10083" lon="3.77242">
        <ele>693</ele>
        <time>2010-08-18T09:15:01Z</time>
      </trkpt>
      <trkpt lat="46.10122" lon="3.77188">
        <ele>695</ele>
        <time>2010-08-18T09:15:01Z</time>
      </trkpt>
      <trkpt lat="46.10267" lon="3.77141">
        <ele>698</ele>
        <time>2010-08-18T09:15:01Z</time>
      </trkpt>
      <trkpt lat="46.10374" lon="3.77179">
        <ele>693</ele>
        <time>2010-08-18T09:15:01Z</time>
      </trkpt>
      <trkpt lat="46.10569" lon="3.77074">
        <ele>703</ele>
        <time>2010-08-18T09:15:01Z</time>
      </trkpt>
      <trkpt lat="46.10595" lon="3.76945">
        <ele>710</ele>
        <time>2010-08-18T09:15:01Z</time>
      </trkpt>
      <trkpt lat="46.10663" lon="3.76902">
        <ele>712</ele>
        <time>2010-08-18T09:15:01Z</time>
      </trkpt>
      <trkpt lat="46.10685" lon="3.76964">
        <ele>705</ele>
        <time>2010-08-18T09:15:01Z</time>
      </trkpt>
      <trkpt lat="46.10748" lon="3.77004">
        <ele>702</ele>
        <time>2010-08-18T09:15:01Z</time>
      </trkpt>
      <trkpt lat="46.1077" lon="3.77163">
        <ele>691</ele>
        <time>2010-08-18T09:15:01Z</time>
      </trkpt>
      <trkpt lat="46.10871" lon="3.77237">
        <ele>681</ele>
        <time>2010-08-18T09:15:01Z</time>
      </trkpt>
      <trkpt lat="46.10867" lon="3.77341">
        <ele>678</ele>
        <time>2010-08-18T09:15:01Z</time>
      </trkpt>
      <trkpt lat="46.10943" lon="3.77391">
        <ele>684</ele>
        <time>2010-08-18T09:15:01Z</time>
      </trkpt>
      <trkpt lat="46.11017" lon="3.77361">
        <ele>684</ele>
        <time>2010-08-18T09:15:01Z</time>
      </trkpt>
      <trkpt lat="46.1117" lon="3.77387">
        <ele>688</ele>
        <time>2010-08-18T09:15:01Z</time>
      </trkpt>
      <trkpt lat="46.11324" lon="3.77463">
        <ele>689</ele>
        <time>2010-08-18T09:15:01Z</time>
      </trkpt>
      <trkpt lat="46.11389" lon="3.77513">
        <ele>693</ele>
        <time>2010-08-18T09:15:01Z</time>
      </trkpt>
      <trkpt lat="46.11477" lon="3.77518">
        <ele>694</ele>
        <time>2010-08-18T09:15:01Z</time>
      </trkpt>
      <trkpt lat="46.11498" lon="3.77571">
        <ele>699</ele>
        <time>2010-08-18T09:15:01Z</time>
      </trkpt>
      <trkpt lat="46.11574" lon="3.77799">
        <ele>713</ele>
        <time>2010-08-18T09:15:01Z</time>
      </trkpt>
      <trkpt lat="46.11597" lon="3.77984">
        <ele>729</ele>
        <time>2010-08-18T09:15:01Z</time>
      </trkpt>
      <trkpt lat="46.1164" lon="3.78128">
        <ele>737</ele>
        <time>2010-08-18T09:15:01Z</time>
      </trkpt>
      <trkpt lat="46.11628" lon="3.78515">
        <ele>756</ele>
        <time>2010-08-18T09:15:01Z</time>
      </trkpt>
      <trkpt lat="46.1162" lon="3.78658">
        <ele>762</ele>
        <time>2010-08-18T09:15:01Z</time>
      </trkpt>
      <trkpt lat="46.11629" lon="3.7879">
        <ele>766</ele>
        <time>2010-08-18T09:15:01Z</time>
      </trkpt>
      <trkpt lat="46.11608" lon="3.79049">
        <ele>776</ele>
        <time>2010-08-18T09:15:01Z</time>
      </trkpt>
      <trkpt lat="46.11631" lon="3.7934">
        <ele>775</ele>
        <time>2010-08-18T09:15:01Z</time>
      </trkpt>
      <trkpt lat="46.11691" lon="3.79429">
        <ele>768</ele>
        <time>2010-08-18T09:15:01Z</time>
      </trkpt>
      <trkpt lat="46.11652" lon="3.79645">
        <ele>768</ele>
        <time>2010-08-18T09:15:01Z</time>
      </trkpt>
      <trkpt lat="46.11621" lon="3.79787">
        <ele>768</ele>
        <time>2010-08-18T09:15:01Z</time>
      </trkpt>
      <trkpt lat="46.11662" lon="3.8005">
        <ele>790</ele>
        <time>2010-08-18T09:15:01Z</time>
      </trkpt>
      <trkpt lat="46.11664" lon="3.80296">
        <ele>812</ele>
        <time>2010-08-18T09:15:01Z</time>
      </trkpt>
      <trkpt lat="46.11743" lon="3.80262">
        <ele>820</ele>
        <time>2010-08-18T09:15:01Z</time>
      </trkpt>
      <trkpt lat="46.11888" lon="3.80159">
        <ele>835</ele>
        <time>2010-08-18T09:15:01Z</time>
      </trkpt>
      <trkpt lat="46.12093" lon="3.80003">
        <ele>839</ele>
        <time>2010-08-18T09:15:01Z</time>
      </trkpt>
      <trkpt lat="46.12395" lon="3.79904">
        <ele>826</ele>
        <time>2010-08-18T09:15:01Z</time>
      </trkpt>
      <trkpt lat="46.12526" lon="3.79875">
        <ele>803</ele>
        <time>2010-08-18T09:15:01Z</time>
      </trkpt>
      <trkpt lat="46.12591" lon="3.799">
        <ele>793</ele>
        <time>2010-08-18T09:15:01Z</time>
      </trkpt>
      <trkpt lat="46.12705" lon="3.79997">
        <ele>768</ele>
        <time>2010-08-18T09:15:01Z</time>
      </trkpt>
      <trkpt lat="46.12844" lon="3.79997">
        <ele>757</ele>
        <time>2010-08-18T09:15:01Z</time>
      </trkpt>
      <trkpt lat="46.12887" lon="3.79481">
        <ele>709</ele>
        <time>2010-08-18T09:15:01Z</time>
      </trkpt>
      <trkpt lat="46.12986" lon="3.79121">
        <ele>652</ele>
        <time>2010-08-18T09:15:01Z</time>
      </trkpt>
      <trkpt lat="46.13121" lon="3.78966">
        <ele>661</ele>
        <time>2010-08-18T09:15:01Z</time>
      </trkpt>
      <trkpt lat="46.13205" lon="3.789">
        <ele>656</ele>
        <time>2010-08-18T09:15:01Z</time>
      </trkpt>
      <trkpt lat="46.13078" lon="3.78939">
        <ele>646</ele>
        <time>2010-08-18T09:15:01Z</time>
      </trkpt>
      <trkpt lat="46.13151" lon="3.78857">
        <ele>640</ele>
        <time>2010-08-18T09:15:01Z</time>
      </trkpt>
      <trkpt lat="46.13034" lon="3.78889">
        <ele>626</ele>
        <time>2010-08-18T09:15:01Z</time>
      </trkpt>
      <trkpt lat="46.13014" lon="3.78863">
        <ele>619</ele>
        <time>2010-08-18T09:15:01Z</time>
      </trkpt>
      <trkpt lat="46.13017" lon="3.78785">
        <ele>613</ele>
        <time>2010-08-18T09:15:01Z</time>
      </trkpt>
      <trkpt lat="46.12995" lon="3.78726">
        <ele>618</ele>
        <time>2010-08-18T09:15:01Z</time>
      </trkpt>
      <trkpt lat="46.12975" lon="3.787">
        <ele>624</ele>
        <time>2010-08-18T09:15:01Z</time>
      </trkpt>
      <trkpt lat="46.12989" lon="3.78665">
        <ele>622</ele>
        <time>2010-08-18T09:15:01Z</time>
      </trkpt>
      <trkpt lat="46.13046" lon="3.78621">
        <ele>617</ele>
        <time>2010-08-18T09:15:01Z</time>
      </trkpt>
      <trkpt lat="46.13056" lon="3.78573">
        <ele>622</ele>
        <time>2010-08-18T09:15:01Z</time>
      </trkpt>
      <trkpt lat="46.13048" lon="3.78514">
        <ele>630</ele>
        <time>2010-08-18T09:15:01Z</time>
      </trkpt>
      <trkpt lat="46.13092" lon="3.78415">
        <ele>629</ele>
        <time>2010-08-18T09:15:01Z</time>
      </trkpt>
      <trkpt lat="46.13083" lon="3.78357">
        <ele>640</ele>
        <time>2010-08-18T09:15:01Z</time>
      </trkpt>
      <trkpt lat="46.13091" lon="3.78315">
        <ele>641</ele>
        <time>2010-08-18T09:15:01Z</time>
      </trkpt>
      <trkpt lat="46.13122" lon="3.7829">
        <ele>646</ele>
        <time>2010-08-18T09:15:01Z</time>
      </trkpt>
      <trkpt lat="46.13185" lon="3.7833">
        <ele>641</ele>
        <time>2010-08-18T09:15:01Z</time>
      </trkpt>
      <trkpt lat="46.13217" lon="3.78299">
        <ele>641</ele>
        <time>2010-08-18T09:15:01Z</time>
      </trkpt>
      <trkpt lat="46.13213" lon="3.78253">
        <ele>645</ele>
        <time>2010-08-18T09:15:01Z</time>
      </trkpt>
      <trkpt lat="46.13193" lon="3.78214">
        <ele>653</ele>
        <time>2010-08-18T09:15:01Z</time>
      </trkpt>
      <trkpt lat="46.13214" lon="3.78192">
        <ele>652</ele>
        <time>2010-08-18T09:15:01Z</time>
      </trkpt>
      <trkpt lat="46.13259" lon="3.78157">
        <ele>659</ele>
        <time>2010-08-18T09:15:01Z</time>
      </trkpt>
      <trkpt lat="46.1336" lon="3.78167">
        <ele>657</ele>
        <time>2010-08-18T09:15:01Z</time>
      </trkpt>
      <trkpt lat="46.1342" lon="3.78074">
        <ele>666</ele>
        <time>2010-08-18T09:15:01Z</time>
      </trkpt>
      <trkpt lat="46.13462" lon="3.7793">
        <ele>689</ele>
        <time>2010-08-18T09:15:01Z</time>
      </trkpt>
      <trkpt lat="46.13578" lon="3.77862">
        <ele>689</ele>
        <time>2010-08-18T09:15:01Z</time>
      </trkpt>
      <trkpt lat="46.13643" lon="3.77715">
        <ele>702</ele>
        <time>2010-08-18T09:15:01Z</time>
      </trkpt>
      <trkpt lat="46.13705" lon="3.77609">
        <ele>700</ele>
        <time>2010-08-18T09:15:01Z</time>
      </trkpt>
      <trkpt lat="46.13711" lon="3.77496">
        <ele>702</ele>
        <time>2010-08-18T09:15:01Z</time>
      </trkpt>
      <trkpt lat="46.13739" lon="3.77432">
        <ele>702</ele>
        <time>2010-08-18T09:15:01Z</time>
      </trkpt>
      <trkpt lat="46.13816" lon="3.77363">
        <ele>694</ele>
        <time>2010-08-18T09:15:01Z</time>
      </trkpt>
      <trkpt lat="46.13865" lon="3.77248">
        <ele>684</ele>
        <time>2010-08-18T09:15:01Z</time>
      </trkpt>
      <trkpt lat="46.13892" lon="3.77077">
        <ele>677</ele>
        <time>2010-08-18T09:15:01Z</time>
      </trkpt>
      <trkpt lat="46.13932" lon="3.7689">
        <ele>669</ele>
        <time>2010-08-18T09:15:01Z</time>
      </trkpt>
      <trkpt lat="46.13905" lon="3.76728">
        <ele>663</ele>
        <time>2010-08-18T09:15:01Z</time>
      </trkpt>
      <trkpt lat="46.13864" lon="3.76597">
        <ele>658</ele>
        <time>2010-08-18T09:15:01Z</time>
      </trkpt>
      <trkpt lat="46.13857" lon="3.76442">
        <ele>663</ele>
        <time>2010-08-18T09:15:01Z</time>
      </trkpt>
      <trkpt lat="46.1391" lon="3.76307">
        <ele>657</ele>
        <time>2010-08-18T09:15:01Z</time>
      </trkpt>
      <trkpt lat="46.13973" lon="3.7615">
        <ele>654</ele>
        <time>2010-08-18T09:15:01Z</time>
      </trkpt>
      <trkpt lat="46.13976" lon="3.76083">
        <ele>657</ele>
        <time>2010-08-18T09:15:01Z</time>
      </trkpt>
      <trkpt lat="46.13924" lon="3.75968">
        <ele>658</ele>
        <time>2010-08-18T09:15:01Z</time>
      </trkpt>
      <trkpt lat="46.14169" lon="3.75625">
        <ele>651</ele>
        <time>2010-08-18T09:15:01Z</time>
      </trkpt>
      <trkpt lat="46.14219" lon="3.75584">
        <ele>652</ele>
        <time>2010-08-18T09:15:01Z</time>
      </trkpt>
      <trkpt lat="46.14309" lon="3.75583">
        <ele>650</ele>
        <time>2010-08-18T09:15:01Z</time>
      </trkpt>
      <trkpt lat="46.14303" lon="3.7546">
        <ele>667</ele>
        <time>2010-08-18T09:15:01Z</time>
      </trkpt>
      <trkpt lat="46.14328" lon="3.75435">
        <ele>670</ele>
        <time>2010-08-18T09:15:01Z</time>
      </trkpt>
      <trkpt lat="46.14419" lon="3.75411">
        <ele>670</ele>
        <time>2010-08-18T09:15:01Z</time>
      </trkpt>
      <trkpt lat="46.14537" lon="3.75301">
        <ele>681</ele>
        <time>2010-08-18T09:15:01Z</time>
      </trkpt>
      <trkpt lat="46.14519" lon="3.75155">
        <ele>699</ele>
        <time>2010-08-18T09:15:01Z</time>
      </trkpt>
      <trkpt lat="46.14583" lon="3.75079">
        <ele>706</ele>
        <time>2010-08-18T09:15:01Z</time>
      </trkpt>
      <trkpt lat="46.14689" lon="3.75027">
        <ele>708</ele>
        <time>2010-08-18T09:15:01Z</time>
      </trkpt>
      <trkpt lat="46.1479" lon="3.74887">
        <ele>717</ele>
        <time>2010-08-18T09:15:01Z</time>
      </trkpt>
      <trkpt lat="46.14931" lon="3.74564">
        <ele>702</ele>
        <time>2010-08-18T09:15:01Z</time>
      </trkpt>
      <trkpt lat="46.15024" lon="3.74301">
        <ele>670</ele>
        <time>2010-08-18T09:15:01Z</time>
      </trkpt>
      <trkpt lat="46.15111" lon="3.74232">
        <ele>663</ele>
        <time>2010-08-18T09:15:01Z</time>
      </trkpt>
      <trkpt lat="46.15209" lon="3.74266">
        <ele>658</ele>
        <time>2010-08-18T09:15:01Z</time>
      </trkpt>
      <trkpt lat="46.15226" lon="3.74364">
        <ele>661</ele>
        <time>2010-08-18T09:15:01Z</time>
      </trkpt>
      <trkpt lat="46.15281" lon="3.7444">
        <ele>657</ele>
        <time>2010-08-18T09:15:01Z</time>
      </trkpt>
      <trkpt lat="46.15315" lon="3.74457">
        <ele>650</ele>
        <time>2010-08-18T09:15:01Z</time>
      </trkpt>
      <trkpt lat="46.15367" lon="3.74584">
        <ele>638</ele>
        <time>2010-08-18T09:15:01Z</time>
      </trkpt>
      <trkpt lat="46.15375" lon="3.74646">
        <ele>628</ele>
        <time>2010-08-18T09:15:01Z</time>
      </trkpt>
      <trkpt lat="46.15512" lon="3.74663">
        <ele>586</ele>
        <time>2010-08-18T09:15:01Z</time>
      </trkpt>
      <trkpt lat="46.15586" lon="3.74564">
        <ele>558</ele>
        <time>2010-08-18T09:15:01Z</time>
      </trkpt>
      <trkpt lat="46.15634" lon="3.74452">
        <ele>531</ele>
        <time>2010-08-18T09:15:01Z</time>
      </trkpt>
      <trkpt lat="46.15766" lon="3.74313">
        <ele>512</ele>
        <time>2010-08-18T09:15:01Z</time>
      </trkpt>
      <trkpt lat="46.15801" lon="3.74236">
        <ele>498</ele>
        <time>2010-08-18T09:15:01Z</time>
      </trkpt>
      <trkpt lat="46.15853" lon="3.74186">
        <ele>496</ele>
        <time>2010-08-18T09:15:01Z</time>
      </trkpt>
      <trkpt lat="46.15877" lon="3.74089">
        <ele>491</ele>
        <time>2010-08-18T09:15:01Z</time>
      </trkpt>
      <trkpt lat="46.15951" lon="3.73962">
        <ele>480</ele>
        <time>2010-08-18T09:15:01Z</time>
      </trkpt>
      <trkpt lat="46.1602" lon="3.73802">
        <ele>459</ele>
        <time>2010-08-18T09:15:01Z</time>
      </trkpt>
      <trkpt lat="46.15998" lon="3.73633">
        <ele>444</ele>
        <time>2010-08-18T09:15:01Z</time>
      </trkpt>
      <trkpt lat="46.16008" lon="3.73481">
        <ele>433</ele>
        <time>2010-08-18T09:15:01Z</time>
      </trkpt>
      <trkpt lat="46.15984" lon="3.73292">
        <ele>420</ele>
        <time>2010-08-18T09:15:01Z</time>
      </trkpt>
      <trkpt lat="46.15913" lon="3.73174">
        <ele>418</ele>
        <time>2010-08-18T09:15:01Z</time>
      </trkpt>
      <trkpt lat="46.15809" lon="3.73095">
        <ele>421</ele>
        <time>2010-08-18T09:15:01Z</time>
      </trkpt>
      <trkpt lat="46.15786" lon="3.7307">
        <ele>422</ele>
        <time>2010-08-18T09:15:01Z</time>
      </trkpt>
    </trkseg>
  </trk>
</gpx>